Temp
64 64 63 63 63 64 64 64 64 64 64 64 64 64 64 64 65 96 97 98 97 82 83 103 103 107 110 101 91 83 79 80 80 85 86 96 90 96 99 94 96 97 92 94 97
64 63 63 63 63 63 63 63 63 64 64 64 64 64 64 64 83 95 93 87 84 83 100 104 105 109 104 103 88 84 83 86 91 95 91 94 93 93 92 91 91 94 96 97 97
63 63 63 63 63 63 63 63 63 63 63 63 63 64 64 68 88 101 85 87 85 87 103 105 108 107 101 106 101 99 89 96 96 98 99 95 95 98 91 88 92 88 91 94 95
63 63 62 62 63 63 63 63 62 62 62 63 63 64 64 81 84 101 86 86 85 100 103 103 105 101 96 98 103 93 100 99 98 100 98 95 99 94 95 94 98 96 95 94 93
62 62 62 62 62 62 62 62 62 61 62 63 64 64 79 88 95 101 86 87 100 101 101 102 101 101 94 101 101 96 99 101 101 100 99 100 95 94 94 98 99 97 95 93 94
62 62 62 62 62 62 61 61 61 61 62 63 64 63 80 83 111 110 108 104 106 104 103 105 103 107 101 101 98 101 96 96 97 98 98 90 89 86 95 98 96 94 93 94 95
62 62 62 62 61 61 61 60 60 61 61 63 64 76 86 91 111 113 110 108 108 108 103 109 110 104 104 99 105 96 78 74 82 79 67 90 75 79 90 96 93 93 94 95 96
62 62 62 61 61 61 60 59 60 61 62 64 66 80 84 109 112 109 111 108 112 111 109 111 113 106 102 105 101 85 76 57 76 86 65 81 61 77 89 94 91 93 94 94 96
62 62 61 61 60 60 58 59 61 63 65 67 75 83 87 96 102 108 110 105 108 109 110 112 108 101 101 93 90 85 67 70 74 89 90 88 63 79 89 95 91 92 93 94 95
61 61 61 61 60 59 58 58 68 66 72 84 89 85 94 96 106 107 111 109 104 104 102 101 98 92 94 90 78 70 65 76 80 92 96 80 66 75 93 96 93 93 92 93 93
61 60 60 60 60 58 63 86 81 79 87 89 92 92 99 107 109 104 108 105 105 99 90 96 88 83 90 93 94 92 72 64 80 92 92 91 88 91 95 95 93 94 92 93 94
61 60 60 59 59 58 63 84 94 95 83 94 95 99 103 105 95 100 108 96 95 88 94 91 84 93 97 96 94 93 89 87 83 83 91 91 90 94 93 95 96 95 94 93 94
61 60 59 59 58 65 85 92 102 101 85 92 98 96 99 101 94 97 103 99 93 89 91 86 92 97 95 93 90 91 89 87 69 70 76 86 87 83 72 85 98 100 99 97 95
61 60 59 57 67 88 91 101 102 102 76 86 91 96 100 100 91 106 106 100 96 89 92 91 97 95 92 90 93 86 96 93 83 75 73 91 75 85 83 90 94 97 99 99 97
60 59 58 57 72 84 97 102 102 96 63 91 92 108 102 93 98 98 107 100 90 91 92 88 92 91 89 91 95 89 96 93 92 85 85 86 71 84 91 88 89 97 99 101 100
59 59 57 73 71 85 98 101 96 74 65 85 92 90 90 94 96 100 98 102 101 93 94 92 101 97 94 97 96 97 92 92 91 87 75 84 79 78 81 88 92 99 100 102 103
58 57 58 72 86 99 100 92 73 67 91 84 85 90 89 87 91 92 89 88 85 79 81 88 91 96 97 90 95 93 87 74 72 73 72 86 84 83 91 97 97 97 101 103 105
55 56 67 79 95 94 93 80 65 83 85 94 91 89 85 90 90 90 87 84 91 90 86 80 76 90 96 90 88 89 88 76 65 69 74 82 66 66 97 101 100 101 102 103 103
55 85 88 90 89 94 83 70 75 84 92 89 90 83 84 90 90 88 86 86 91 92 82 83 82 96 96 96 94 89 82 92 82 85 78 72 78 89 97 97 98 98 99 100 101
66 78 88 101 98 90 78 66 82 93 94 93 82 87 81 86 85 87 86 92 91 96 98 90 80 93 94 97 96 92 96 81 82 68 67 72 77 77 86 91 96 93 97 99 101
70 80 96 102 98 83 72 79 88 96 94 89 88 86 88 86 87 86 87 93 96 95 97 94 88 86 92 87 86 88 85 88 89 84 72 68 73 91 89 93 94 97 98 98 100
79 74 97 100 79 82 78 84 80 92 95 92 94 92 89 90 87 87 87 92 99 98 89 94 90 81 85 94 96 94 89 90 79 76 83 78 76 96 95 96 97 97 97 101 103
73 83 98 96 74 78 85 87 92 90 92 91 90 94 96 90 84 90 92 97 98 96 91 94 87 77 80 88 93 89 92 93 93 90 68 69 74 95 97 96 97 96 96 97 99
74 76 87 88 87 83 82 85 86 94 93 95 93 96 93 90 93 88 89 94 97 97 81 90 87 79 74 80 88 83 88 91 90 81 79 80 81 88 90 90 93 94 96 97 96
74 78 79 78 81 83 86 87 85 86 92 94 90 92 90 85 88 87 92 91 95 84 92 94 82 81 77 81 90 88 88 89 86 87 81 81 83 87 90 91 92 94 95 95 94
69 77 75 78 86 85 77 84 86 89 90 88 87 93 94 87 89 87 90 90 88 94 92 95 81 81 79 89 89 85 89 90 90 90 89 86 77 71 92 93 91 92 91 90 90
81 85 79 71 81 83 84 85 86 92 94 96 94 93 91 88 96 98 101 100 97 92 90 90 88 83 77 87 86 79 87 89 90 92 90 70 64 67 70 88 90 91 92 91 91
MSLP
1016.30 1015.98 1015.71 1015.33 1014.93 1014.49 1014.07 1013.66 1013.29 1012.74 1012.19 1011.82 1011.37 1010.76 1010.22 1009.34 1007.73 1006.14 1004.86 1003.75 1003.70 1003.62 1003.95 1002.76 1001.75 1000.52 999.50 1000.33 1001.30 1002.40 1001.20 999.88 1000.38 999.99 1000.86 1000.96 1001.72 1002.35 1002.67 1002.85 1003.28 1003.94 1005.45 1006.62 1007.65
1016.36 1016.00 1015.63 1015.31 1014.90 1014.49 1014.12 1013.65 1013.26 1012.74 1012.17 1011.66 1011.31 1010.70 1010.28 1009.71 1007.88 1005.08 1003.68 1003.55 1003.47 1003.67 1003.44 1001.52 999.81 998.87 998.48 998.68 1000.02 1001.40 999.84 999.68 999.37 999.39 1000.12 1000.71 1001.40 1001.82 1002.26 1003.10 1003.42 1003.98 1005.47 1006.85 1007.56
1016.38 1016.06 1015.66 1015.18 1014.80 1014.45 1014.08 1013.55 1013.12 1012.65 1012.17 1011.67 1011.12 1010.67 1010.16 1009.77 1006.90 1003.09 1003.53 1003.57 1003.44 1003.58 1003.11 1001.82 1000.29 998.97 997.92 997.50 998.11 998.20 998.65 998.88 999.12 999.25 999.62 1000.09 1000.28 1000.77 1001.71 1002.36 1003.47 1004.58 1005.66 1006.89 1007.47
1016.45 1016.02 1015.66 1015.29 1014.78 1014.32 1013.92 1013.49 1012.99 1012.51 1012.08 1011.58 1011.08 1010.50 1009.84 1008.93 1004.96 1002.98 1003.41 1003.64 1003.63 1003.41 1002.82 1001.64 999.95 998.70 998.29 997.11 997.57 998.03 998.09 998.15 998.92 999.24 999.39 999.96 1000.14 1001.16 1001.81 1002.49 1003.41 1004.80 1005.80 1006.73 1007.33
1016.50 1016.02 1015.59 1015.23 1014.78 1014.17 1013.67 1013.26 1012.87 1012.40 1011.94 1011.52 1011.08 1010.67 1008.95 1006.75 1003.13 1002.90 1003.32 1003.45 1003.45 1003.20 1002.37 1001.14 999.54 998.37 998.03 997.04 997.41 997.81 997.82 997.91 998.94 999.67 1000.19 1000.60 1000.96 1001.73 1002.32 1002.93 1003.96 1005.11 1006.06 1006.70 1007.07
1016.64 1016.13 1015.57 1015.04 1014.56 1014.06 1013.48 1013.03 1012.64 1012.14 1011.74 1011.37 1011.11 1010.82 1009.08 1004.97 1001.59 1001.93 1002.40 1002.71 1002.52 1002.43 1001.65 1000.86 999.37 998.45 998.05 997.39 997.82 998.39 999.53 999.01 1000.16 999.85 1001.01 1002.07 1002.59 1002.86 1002.85 1003.45 1004.30 1005.24 1005.92 1006.37 1006.70
1016.70 1016.19 1015.64 1015.01 1014.38 1013.80 1013.33 1012.75 1012.28 1011.83 1011.41 1011.14 1011.03 1010.34 1007.35 1003.42 1001.58 1001.40 1001.97 1001.76 1001.76 1001.40 1000.93 1000.19 999.50 998.87 998.27 997.73 998.04 999.86 1001.01 1001.86 1002.06 1003.41 1006.71 1003.15 1003.79 1003.37 1003.89 1003.70 1004.41 1005.11 1005.63 1005.99 1006.23
1016.61 1016.13 1015.55 1014.90 1014.27 1013.58 1012.88 1012.30 1011.75 1011.30 1010.98 1010.76 1010.76 1009.63 1005.36 1001.85 1001.40 1001.48 1001.46 1001.24 1000.99 1001.16 1000.70 1000.00 999.24 999.14 998.82 998.32 998.48 1001.20 1003.40 1006.46 1003.70 1003.30 1007.54 1004.20 1006.68 1004.13 1003.90 1003.64 1004.25 1004.74 1005.23 1005.64 1005.93
1016.53 1016.02 1015.41 1014.72 1013.98 1013.26 1012.47 1011.64 1011.03 1010.55 1010.46 1010.33 1009.93 1008.04 1003.62 1001.99 1001.49 1001.40 1001.28 1000.78 1000.61 1000.63 1000.52 1000.21 999.86 999.35 999.24 998.76 998.76 1001.26 1004.30 1003.90 1003.86 1002.40 1003.26 1002.62 1007.65 1004.96 1004.20 1003.15 1003.70 1004.27 1004.78 1005.26 1005.64
1016.42 1015.86 1015.24 1014.58 1013.90 1013.08 1012.00 1010.77 1009.98 1010.12 1009.76 1009.02 1007.80 1006.25 1002.38 1000.70 1000.11 1000.59 1000.69 1000.51 1000.26 1000.47 1000.41 1000.24 1000.36 999.75 999.11 998.48 998.34 1000.71 1003.58 1004.21 1002.61 1000.65 1000.42 1001.93 1003.59 1003.05 1002.48 1002.24 1002.80 1003.50 1004.23 1004.81 1005.30
1016.26 1015.63 1014.94 1014.28 1013.62 1013.06 1011.93 1009.13 1009.47 1008.59 1007.28 1004.68 1003.34 1002.08 1000.39 999.80 1000.01 1000.20 1000.23 1000.29 999.91 1000.14 999.94 1000.03 999.91 999.07 998.61 998.11 997.80 998.32 1001.55 1003.07 1001.18 1000.32 1000.11 1000.17 1000.62 1000.42 1000.96 1001.17 1001.49 1002.27 1003.31 1004.08 1004.69
1016.10 1015.43 1014.64 1013.82 1013.07 1012.65 1012.48 1008.64 1005.54 1005.17 1004.17 1002.93 1002.28 1001.00 1000.31 999.98 999.90 1000.12 1000.03 1000.14 999.69 999.51 999.72 999.61 998.84 998.61 998.26 997.83 997.62 997.60 998.35 999.03 1001.29 1001.49 1000.02 999.70 999.76 999.73 1000.89 1000.60 1000.38 1000.54 1001.73 1002.89 1003.86
1015.93 1015.29 1014.48 1013.24 1012.08 1011.39 1009.27 1006.67 1005.35 1004.80 1003.35 1000.80 1000.17 1000.18 999.97 1000.34 999.62 999.09 999.65 999.53 999.14 999.09 998.82 998.59 997.98 997.97 997.73 997.44 997.33 997.15 997.47 998.33 1000.66 1003.05 1000.84 1000.07 999.16 1000.37 1001.01 1000.72 999.86 999.70 1000.41 1001.52 1002.68
1015.69 1015.11 1014.47 1013.25 1011.46 1009.06 1006.79 1005.27 1005.31 1004.66 1002.68 998.99 998.78 998.75 999.18 999.47 999.10 998.18 999.00 999.17 998.59 998.61 998.38 997.92 997.60 996.99 997.09 997.22 997.07 996.62 996.83 997.77 999.49 1000.13 999.52 998.78 998.38 998.54 999.73 998.96 999.16 999.19 999.44 1000.19 1001.47
1015.38 1014.83 1014.40 1014.47 1012.09 1008.54 1005.74 1005.48 1005.34 1004.51 1000.92 997.69 997.95 997.66 998.19 998.70 997.48 997.75 998.54 998.88 998.44 998.18 998.24 997.52 997.10 997.05 996.75 996.62 996.87 996.66 996.76 997.16 997.57 997.76 997.64 997.55 998.83 998.10 998.52 997.69 998.71 998.23 998.66 999.19 1000.06
1015.01 1014.50 1014.29 1011.97 1011.86 1008.07 1006.65 1005.70 1005.07 1003.42 998.77 997.28 997.66 997.94 998.11 998.07 997.56 997.54 998.37 998.84 998.41 998.25 998.03 997.51 996.86 996.95 996.99 996.75 996.81 996.93 997.29 997.31 997.69 997.85 997.61 997.12 997.68 998.01 998.23 997.47 997.24 997.21 997.81 998.12 998.92
1014.44 1013.71 1014.09 1012.69 1008.18 1006.41 1006.11 1005.51 1003.79 1000.70 996.86 996.54 996.96 997.35 997.37 997.59 997.23 997.68 998.24 998.37 998.26 998.20 997.42 997.44 996.87 996.81 997.05 996.92 997.04 997.23 997.28 997.11 997.17 997.28 996.70 997.07 996.58 996.76 997.10 996.56 996.71 997.04 997.20 997.56 998.01
1013.84 1012.19 1010.37 1009.56 1007.26 1007.33 1006.27 1004.97 1001.86 997.75 995.99 995.41 996.06 996.86 996.81 996.90 996.83 997.46 997.92 997.91 997.92 997.22 996.25 996.39 996.56 996.58 996.80 996.99 996.48 996.71 996.84 996.58 996.62 996.20 996.15 997.08 999.02 999.91 996.59 996.37 996.69 996.85 996.98 997.42 997.85
1013.27 1009.76 1008.17 1007.13 1007.66 1006.97 1005.71 1003.07 999.27 996.91 994.93 995.20 995.66 996.26 996.28 996.17 996.16 996.73 997.24 997.10 996.75 996.81 996.14 995.00 995.01 995.17 995.99 996.49 996.67 995.98 996.51 996.46 996.20 995.97 996.08 997.74 998.24 997.11 996.49 996.44 996.44 996.48 997.08 997.27 997.86
1013.43 1009.65 1006.06 1004.81 1006.09 1006.19 1004.80 1001.86 999.05 996.73 995.68 995.03 995.08 995.47 995.31 995.41 995.89 995.75 996.01 996.03 995.83 995.78 995.98 995.31 994.81 994.71 995.73 996.27 996.51 995.99 995.79 996.14 996.34 996.11 996.22 997.56 996.77 996.75 996.83 996.52 996.43 997.14 997.32 998.08 997.91
1012.65 1007.79 1003.98 1004.36 1005.17 1004.95 1002.88 1000.45 997.94 996.88 996.59 995.64 994.73 994.61 994.52 994.60 995.19 994.95 994.93 995.01 995.12 995.07 995.81 995.68 995.15 995.13 995.58 996.02 995.76 995.99 995.73 995.23 995.03 995.38 995.65 996.53 997.56 997.33 997.28 996.93 996.70 997.15 997.45 996.48 997.60
1010.93 1006.64 1003.81 1004.31 1004.33 1003.19 1001.62 999.96 998.41 997.21 996.66 996.05 995.05 994.18 993.95 994.15 994.67 994.35 993.93 994.18 994.59 994.82 995.48 995.80 994.95 994.88 995.15 995.51 995.86 995.42 995.28 994.87 994.75 995.70 995.58 996.35 997.18 996.87 997.32 997.41 997.35 997.37 997.86 997.93 998.19
1010.35 1005.66 1003.36 1003.69 1002.79 1001.58 1000.41 999.23 997.68 997.03 996.10 995.91 995.08 994.13 993.56 993.83 994.26 993.77 993.80 994.55 994.93 995.02 995.49 995.65 995.16 995.00 994.97 995.55 995.67 995.10 994.86 994.64 994.48 994.40 995.93 996.44 997.22 997.39 997.45 997.75 998.07 998.45 999.31 999.67 999.87
1010.69 1005.39 1002.92 1003.15 1002.40 1001.05 999.65 998.26 997.32 997.00 996.06 995.27 994.73 993.93 993.65 993.43 993.74 993.89 994.01 994.81 995.39 995.47 996.03 996.19 995.94 996.14 995.74 995.00 994.86 995.15 994.90 994.55 994.44 994.73 995.34 996.49 997.06 997.68 997.92 998.54 998.96 999.20 999.71 1000.22 1000.63
1010.56 1005.52 1003.84 1001.79 1001.40 1000.93 999.47 997.78 996.93 996.21 996.33 995.63 994.94 994.13 994.07 993.75 993.86 993.86 994.10 994.93 995.38 995.87 996.15 996.13 996.17 996.60 996.48 995.85 994.74 994.79 994.55 994.64 994.70 995.07 996.04 997.30 998.54 998.68 999.28 999.69 999.95 999.86 1000.08 1000.70 1001.22
1010.18 1006.32 1004.96 1003.04 1000.70 999.88 999.03 997.74 996.44 995.71 995.79 995.51 995.12 994.31 993.79 993.65 993.35 993.39 994.06 994.90 995.07 995.59 996.05 996.10 996.26 996.79 996.26 995.23 994.95 994.82 994.60 994.52 994.93 995.70 996.60 998.41 1001.36 1002.19 1000.12 1001.16 1001.26 1001.32 1001.25 1001.54 1002.24
1009.55 1007.36 1006.45 1003.93 1001.52 999.65 998.37 997.94 996.95 995.74 995.31 995.26 995.05 994.50 994.09 994.48 994.70 994.12 993.53 994.08 994.42 995.00 995.44 995.61 995.28 995.65 995.61 995.59 995.57 995.33 994.73 994.66 995.17 996.13 997.48 1000.72 1004.21 1005.04 1005.55 1001.53 1002.05 1001.78 1001.91 1002.16 1002.58
Wind_Speed
17 18 17 18 18 18 18 18 18 19 19 19 18 19 18 22 25 9 10 1 2 12 4 13 18 17 18 3 29 5 5 13 9 19 9 14 15 15 13 11 7 12 16 22 21
17 18 18 17 18 18 18 18 18 18 19 19 18 19 18 18 11 15 2 7 8 10 10 16 16 12 12 12 7 6 4 16 9 19 13 17 11 11 11 11 6 22 21 23 20
18 18 18 18 18 18 18 19 19 19 19 19 19 19 18 17 10 12 2 5 7 9 14 18 20 19 18 2 1 0 12 7 11 12 15 15 10 12 8 14 13 19 23 21 19
18 19 18 19 20 20 19 18 19 19 19 19 19 19 20 7 4 7 6 5 3 8 14 17 21 18 13 6 6 3 8 9 14 11 7 11 13 16 11 12 16 19 21 20 19
19 20 19 19 20 20 20 19 19 19 18 18 18 17 12 9 15 10 8 8 8 9 14 17 19 16 7 15 0 8 11 12 15 10 13 9 15 14 13 15 17 19 19 19 18
19 20 21 21 20 20 20 19 19 19 18 18 16 16 8 14 4 12 10 11 13 13 15 17 20 14 15 7 3 10 23 15 17 3 13 19 13 8 13 16 17 19 19 18 18
19 19 20 22 22 23 20 20 21 20 18 17 12 7 11 18 2 2 6 10 14 17 18 16 18 18 15 14 6 23 21 40 24 27 10 9 11 4 7 15 17 17 16 17 17
20 21 21 23 24 24 22 21 22 20 17 14 9 8 10 8 14 11 10 11 13 16 18 20 15 16 17 20 8 19 14 9 29 22 10 12 8 18 13 16 16 17 15 15 16
18 21 20 22 22 25 24 24 22 18 11 9 7 10 15 4 11 14 13 14 13 14 16 17 12 12 17 17 14 13 6 8 11 23 21 13 10 25 18 17 17 16 15 14 14
20 21 21 21 22 25 26 25 12 10 7 9 12 11 13 12 11 15 15 14 12 15 17 15 11 14 15 16 14 10 11 25 13 10 7 32 31 29 25 19 18 17 15 14 15
19 20 21 23 25 21 16 5 7 8 13 13 10 13 5 5 8 7 11 12 14 15 18 18 15 18 20 20 18 17 26 31 10 9 3 10 15 23 20 18 19 18 17 17 16
20 20 22 24 25 22 8 8 9 11 11 21 19 16 9 4 10 12 14 13 15 17 19 18 19 21 20 20 20 18 15 7 2 23 9 6 7 17 6 15 17 21 20 19 18
20 20 21 27 29 9 11 16 9 11 9 17 22 19 13 11 14 15 17 18 13 17 17 19 20 20 21 19 18 19 12 6 15 7 31 30 7 14 16 22 13 16 21 20 19
17 20 20 26 8 11 12 7 6 8 8 12 16 15 16 14 14 15 18 16 11 16 18 17 19 19 16 18 18 18 8 15 18 14 8 8 9 11 21 20 15 13 13 20 20
19 19 16 6 13 9 9 7 8 8 8 16 13 11 14 16 9 15 18 18 17 11 13 15 15 15 16 13 18 16 10 14 14 13 9 15 7 9 3 2 14 14 16 14 21
20 19 15 1 8 16 15 11 9 8 12 10 10 12 16 19 8 14 14 19 10 14 15 18 13 16 18 12 15 7 15 18 8 10 11 15 13 9 8 7 16 10 11 13 17
22 23 10 10 7 8 7 7 8 11 11 12 15 16 20 16 16 13 17 16 13 12 13 17 18 4 9 10 13 16 15 12 11 11 14 14 9 9 15 9 12 4 3 4 13
23 32 9 10 9 14 8 8 10 14 19 10 11 15 16 17 17 14 15 15 19 17 11 12 13 17 13 17 13 15 17 11 10 15 4 11 3 6 8 6 10 7 7 6 7
28 10 7 9 13 9 8 12 8 15 3 3 15 14 15 18 11 14 17 17 18 18 17 9 13 17 13 12 17 11 10 16 19 19 13 6 5 15 9 10 8 11 9 9 7
13 11 14 11 13 8 9 16 18 16 12 6 10 13 14 17 12 16 18 17 17 18 14 18 8 12 10 8 15 19 11 14 10 15 8 10 14 13 10 3 9 4 13 10 10
7 8 9 9 9 8 11 18 16 4 4 10 10 8 13 14 13 13 12 14 16 14 11 15 13 12 13 10 14 12 10 12 15 8 6 6 7 12 7 6 3 6 14 15 17
9 8 10 9 9 9 14 22 19 12 5 14 10 10 13 10 12 15 13 9 13 10 11 15 8 10 14 14 15 15 16 15 7 7 10 8 8 13 9 7 8 12 15 15 9
7 10 9 10 10 12 18 23 17 14 11 11 10 14 12 10 8 11 8 12 3 9 8 13 10 9 10 13 13 14 16 11 14 11 4 7 11 12 11 11 10 14 10 6 7
7 6 8 9 13 19 19 17 15 13 17 13 14 13 6 7 7 7 2 6 7 13 9 5 6 9 6 3 14 12 13 12 15 10 12 8 18 17 17 14 12 12 12 10 9
6 8 7 7 13 17 21 19 17 12 12 8 8 10 10 9 11 8 7 6 11 6 5 9 6 10 12 25 15 16 16 7 13 12 3 8 10 18 16 15 12 12 12 11 11
7 8 10 16 19 20 16 16 12 14 15 15 15 14 13 2 3 9 13 9 11 9 10 12 7 15 25 6 5 2 7 7 10 12 4 16 20 27 14 14 11 11 12 12 10
7 11 8 11 16 10 12 16 17 16 14 15 13 11 9 14 14 12 13 17 17 10 11 13 12 3 4 2 3 7 12 13 6 10 1 6 5 11 22 13 11 11 11 10 10
Wind_Direction
349 347 346 344 342 340 338 337 334 331 330 329 328 325 326 325 313 259 254 184 178 163 209 263 224 247 237 66 71 356 280 61 349 99 113 101 85 90 136 153 133 111 149 141 148
348 346 343 342 340 338 335 333 330 329 328 325 327 322 325 329 296 275 92 163 177 160 249 257 289 288 253 142 140 204 61 125 187 111 110 90 119 147 130 117 137 129 121 141 159
347 345 343 340 339 336 333 329 327 326 324 323 322 320 322 318 274 224 103 178 198 192 257 288 294 286 306 93 138 9 116 102 58 78 107 119 144 136 150 115 140 132 141 152 160
345 343 340 339 335 332 328 326 323 322 319 319 319 320 314 272 273 75 152 156 219 261 257 272 275 267 241 211 113 290 90 113 121 135 128 104 118 80 67 90 125 141 148 158 164
345 340 337 335 332 328 326 323 319 316 314 314 316 323 320 235 256 135 160 152 202 229 244 264 274 288 350 294 268 92 264 142 129 161 112 127 80 105 98 104 124 140 154 161 170
345 341 336 333 329 327 324 320 316 310 308 306 310 315 252 259 49 141 207 165 228 211 239 249 270 306 296 314 339 303 18 1 80 133 63 69 40 43 113 122 133 148 162 168 175
341 339 337 333 328 329 323 315 310 303 299 296 299 285 263 244 304 270 222 236 209 226 238 248 264 288 283 302 71 57 47 353 326 85 202 66 355 344 324 139 147 158 169 171 174
340 338 334 333 329 325 317 310 305 296 290 279 275 247 264 231 243 248 243 240 226 231 243 263 268 270 285 291 269 102 65 133 275 289 196 120 292 289 263 158 161 162 172 171 174
336 335 332 330 325 325 317 309 300 290 264 270 219 230 259 144 224 230 229 232 221 224 236 251 301 277 256 262 264 26 118 172 259 250 226 120 33 282 252 170 169 167 174 173 176
334 332 329 328 326 325 317 295 289 304 216 204 262 256 245 238 209 200 210 234 211 217 224 226 244 249 247 260 252 146 169 305 227 243 314 125 158 239 211 180 169 174 173 176 180
332 327 325 325 325 322 327 268 208 195 231 235 199 233 137 193 77 212 197 213 218 212 215 215 230 237 241 247 277 292 133 218 320 282 317 332 170 164 175 181 170 173 171 179 189
332 326 324 320 319 317 282 259 23 339 295 227 253 244 268 318 217 215 201 209 204 209 213 226 223 241 241 253 265 270 282 226 85 351 319 294 298 147 125 178 184 173 171 181 184
331 327 324 319 316 279 244 285 333 315 273 264 210 228 228 222 249 192 194 212 205 218 213 228 231 219 253 251 260 267 262 282 106 153 277 262 234 133 153 250 200 184 174 176 183
323 326 321 328 295 337 261 233 291 308 275 221 189 215 209 214 230 229 189 210 214 225 228 232 241 249 210 254 256 260 234 265 146 144 235 228 289 210 178 197 191 183 184 176 181
312 315 318 315 305 280 14 313 338 269 271 132 164 184 183 194 189 204 173 222 233 216 245 234 236 258 257 239 242 267 288 273 321 237 262 266 33 59 190 23 147 192 180 194 176
309 310 328 278 210 259 300 300 270 236 243 144 138 184 180 215 180 148 175 223 239 251 228 260 245 229 238 240 274 267 265 275 269 295 278 264 183 164 179 141 167 167 161 184 183
308 301 287 292 238 343 293 259 228 245 134 151 164 185 200 194 219 155 195 202 214 220 229 225 251 225 273 254 239 232 241 243 229 233 246 347 250 141 187 157 93 52 192 190 187
312 304 246 228 246 234 260 233 248 222 247 129 159 176 194 190 209 174 197 208 224 234 233 207 205 231 198 239 234 220 231 240 231 250 226 131 74 293 23 69 97 148 135 147 196
310 293 227 237 220 254 238 228 251 305 105 132 153 184 201 196 195 190 203 216 212 227 249 244 206 201 209 202 247 220 238 261 273 276 269 105 258 211 100 96 137 132 145 139 137
319 291 260 169 170 215 237 251 282 308 325 244 176 203 196 185 210 189 195 220 227 211 240 274 295 170 169 189 230 259 233 207 241 262 271 144 197 110 121 131 173 47 122 121 113
262 261 114 148 179 221 235 235 242 288 267 281 243 170 234 185 197 231 213 231 209 191 219 257 270 162 171 206 214 223 249 255 230 248 306 114 88 108 139 149 42 83 121 167 122
285 269 143 171 205 226 237 248 269 292 207 269 303 276 237 174 198 224 220 214 179 228 192 235 270 206 209 183 240 215 224 242 248 191 261 132 168 128 128 128 108 62 32 38 84
275 270 158 207 234 234 226 252 263 250 220 220 252 255 242 170 205 240 127 75 118 225 199 229 241 215 169 186 208 228 228 244 240 251 76 305 120 128 137 96 95 112 102 79 79
275 253 201 204 248 275 286 217 249 237 279 229 232 269 226 196 211 211 154 126 180 243 44 328 265 306 327 199 185 211 243 255 260 271 198 207 140 152 132 134 124 108 115 108 79
246 258 3 262 215 230 258 270 225 205 232 255 261 227 198 207 189 186 178 129 194 138 207 252 93 62 13 285 178 190 215 214 263 296 82 76 179 144 140 135 117 116 115 107 89
289 329 351 296 292 214 240 267 245 235 181 219 244 239 227 299 68 161 128 172 181 175 224 229 232 156 210 297 3 229 298 251 211 267 143 113 59 10 31 114 125 110 104 101 94
303 317 291 285 286 271 242 219 251 241 183 216 220 232 261 121 307 326 170 182 175 198 203 239 256 208 297 118 148 246 248 228 263 242 31 86 180 82 328 134 136 130 126 119 109